User: anonymous   Login
Location: Parc des �les de St-Timoth�e
(45.2924°N, 74.0481°W)
Time: 13:00:49
(UTC-04:00)
Language:

Cosmos 2173 Rocket - Orbit

View from above orbital plane
View from above orbital plane
View from above satellite
View from above satellite

Ground track
Ground track

The orbit data is extracted from the following two-line orbital elements,

1 21797U 91081B   15185.20697719 -.00000000  00000-0 -14958-4 0  9999
2 21797 082.9531 232.3708 0036623 289.4419 128.3287 13.77335071186113
Epoch (UTC): 04 July 2015 04:58:02
Eccentricity: 0.0036623
inclination: 82.9531°
perigee height: 946 km
apogee height: 1000 km
right ascension of ascending node: 232.3708°
argument of perigee: 289.4419°
revolutions per day: 13.77335071
mean anomaly at epoch: 128.3287°
orbit number at epoch: 18611

The dashed part of the orbit path shows where the satellite is in the earth's shadow,  

DLR